Regional Weather Roundup
Issued by NWS Nashville, TN

Home | Current Version | Previous Version | Text Only | Print | Product List | Glossary On
Versions: 1 2 3 4 5 6 7 8 9 10 11 12 13 14 15 16 17 18 19 20 21 22 23 24 25 26 27 28 29 30 31 32 33 34 35 36 37 38 39 40 41 42 43 44 45 46 47 48 49 50
000
ASUS44 KOHX 240415
RWROHX
MIDDLE TENNESSEE HOURLY WEATHER ROUNDUP
NATIONAL WEATHER SERVICE NASHVILLE TN
1100 PM CDT TUE SEP 23 2014

NOTE: "FAIR" INDICATES FEW OR NO CLOUDS BELOW 12,000 FEET WITH
NO SIGNIFICANT WEATHER AND/OR OBSTRUCTIONS TO VISIBILITY.

* THESE REPORTS ARE NOT UNDER NWS QUALITY CONTROL AND MAY NOT
  REPORT WEATHER SUCH AS PRECIPITATION AND FOG.


TNZ005>011-023>034-057-059-062>066-078-080-240500
...NORTHERN MIDDLE TENNESSEE...

CITY           SKY/WX    TMP DP  RH WIND       PRES   REMARKS
CLARKSVILLE    CLEAR     57  46  66 E3        30.24R
CROSSVILLE     CLEAR     58  49  72 NE3       30.28R
GALLATIN         N/A     56  51  83 CALM      30.25R
DICKSON        CLEAR     59  46  63 CALM      30.23R
LEBANON        CLEAR     54  50  86 CALM      30.23R
LIVINGSTON     CLEAR     58  49  72 NE5       30.27R
NASHVILLE      CLEAR     59  50  72 CALM      30.24R
WEST NASHVILLE   N/A     55  55 100 CALM      30.24R
PORTLAND       CLEAR     52  48  87 CALM      30.24S
SMYRNA         CLEAR     54  50  86 CALM      30.24S
SPARTA         CLEAR     46  46 100 CALM      30.24S
$$
TNZ056-058-060-061-075>077-079-093>097-240500
...SOUTHERN MIDDLE TENNESSEE...

CITY           SKY/WX    TMP DP  RH WIND       PRES   REMARKS
COLUMBIA       CLEAR     54  54 100 CALM      30.21S
FAYETTEVILLE   CLEAR     59  50  72 NE7       30.22S
LEWISBURG      CLEAR     51  48  89 CALM      30.22S
MCMINNVILLE    CLEAR     55  55 100 CALM      30.25R
MURFREESBORO   CLEAR     58  51  77 CALM      30.23R
SHELBYVILLE    CLEAR     54  52  94 CALM      30.24R
TULLAHOMA      CLEAR     61  52  72 NE3       30.24S
WINCHESTER     CLEAR     55  54  94 CALM      30.23S
$$


...KEY TO REMARKS...
VSB - VISIBILITY IN MILES
WCI - WIND CHILL INDEX
HX  - HEAT INDEX




USA.gov is the U.S. government's official web portal to all federal, state and local government web resources and services.